TimeEDT,TemperatureF,Dew PointF,Humidity,Sea Level PressureIn,VisibilityMPH,Wind Direction,Wind SpeedMPH,Gust SpeedMPH,PrecipitationIn,Events,Conditions,WindDirDegrees,DateUTC
12:15 AM,56.5,56.5,100,29.96,2.5,Calm,Calm,-,N/A,,Clear,0,2012-10-06 04:15:00
12:35 AM,56.3,56.3,100,29.95,3.0,Calm,Calm,-,N/A,,Clear,0,2012-10-06 04:35:00
12:55 AM,56.8,56.8,100,29.95,1.8,Calm,Calm,-,N/A,,Mist,0,2012-10-06 04:55:00
1:15 AM,58.3,58.3,100,29.94,10.0,Calm,Calm,-,N/A,,Clear,0,2012-10-06 05:15:00
1:35 AM,59.2,59.2,100,29.93,10.0,South,3.5,-,N/A,,Clear,190,2012-10-06 05:35:00
1:55 AM,61.0,60.8,99,29.93,10.0,South,4.6,-,N/A,,Clear,190,2012-10-06 05:55:00
2:15 AM,62.8,61.2,94,29.92,10.0,SSW,4.6,-,N/A,,Clear,200,2012-10-06 06:15:00
2:35 AM,63.0,61.0,93,29.92,10.0,South,4.6,-,N/A,,Clear,190,2012-10-06 06:35:00
2:55 AM,62.6,61.0,94,29.91,10.0,SSW,4.6,-,N/A,,Clear,210,2012-10-06 06:55:00
3:15 AM,61.5,60.4,96,29.91,10.0,SW,3.5,-,N/A,,Clear,220,2012-10-06 07:15:00
3:35 AM,59.7,59.4,99,29.90,10.0,Calm,Calm,-,N/A,,Clear,0,2012-10-06 07:35:00
3:55 AM,56.3,56.3,100,29.90,10.0,Calm,Calm,-,N/A,,Clear,0,2012-10-06 07:55:00
4:15 AM,55.9,55.9,100,29.90,7.0,Calm,Calm,-,N/A,,Clear,0,2012-10-06 08:15:00
4:35 AM,57.0,57.0,100,29.90,7.0,Calm,Calm,-,N/A,,Clear,0,2012-10-06 08:35:00
4:55 AM,57.2,57.2,100,29.89,10.0,Calm,Calm,-,N/A,,Clear,0,2012-10-06 08:55:00
5:15 AM,60.4,60.3,99,29.90,10.0,SSW,3.5,-,N/A,,Clear,210,2012-10-06 09:15:00
5:35 AM,60.8,60.1,97,29.89,10.0,SSW,4.6,-,N/A,,Clear,210,2012-10-06 09:35:00
5:55 AM,60.3,60.1,99,29.88,10.0,South,3.5,-,N/A,,Clear,190,2012-10-06 09:55:00
6:15 AM,60.6,60.1,98,29.89,10.0,Calm,Calm,-,N/A,,Clear,0,2012-10-06 10:15:00
6:35 AM,60.1,60.1,100,29.88,10.0,SSW,4.6,-,N/A,,Clear,200,2012-10-06 10:35:00
6:55 AM,60.4,60.3,99,29.88,10.0,South,3.5,-,N/A,,Clear,190,2012-10-06 10:55:00
7:15 AM,59.5,59.5,100,29.88,10.0,SSW,3.5,-,N/A,,Clear,200,2012-10-06 11:15:00
7:35 AM,59.9,59.9,100,29.87,10.0,SSW,4.6,-,N/A,,Clear,200,2012-10-06 11:35:00
7:55 AM,61.3,61.0,99,29.87,10.0,South,3.5,-,N/A,,Clear,180,2012-10-06 11:55:00
8:15 AM,62.6,61.7,97,29.87,10.0,SSW,8.1,-,N/A,,Clear,200,2012-10-06 12:15:00
8:35 AM,63.7,62.6,96,29.87,10.0,South,6.9,-,N/A,,Clear,190,2012-10-06 12:35:00
8:55 AM,64.6,62.8,94,29.87,10.0,SW,4.6,-,N/A,,Clear,230,2012-10-06 12:55:00
9:15 AM,66.4,63.5,90,29.87,10.0,SW,6.9,-,N/A,,Clear,220,2012-10-06 13:15:00
9:35 AM,68.4,64.4,87,29.87,10.0,SW,8.1,-,N/A,,Clear,230,2012-10-06 13:35:00
9:55 AM,70.2,64.6,82,29.87,10.0,SW,3.5,-,N/A,,Clear,220,2012-10-06 13:55:00
10:15 AM,71.2,65.5,82,29.87,10.0,SW,4.6,-,N/A,,Clear,220,2012-10-06 14:15:00
10:35 AM,73.8,65.3,75,29.87,10.0,SSW,8.1,-,N/A,,Clear,210,2012-10-06 14:35:00
10:55 AM,75.4,66.0,73,29.86,10.0,SW,5.8,-,N/A,,Clear,230,2012-10-06 14:55:00
11:15 AM,76.6,66.4,70,29.85,10.0,SSW,6.9,-,N/A,,Clear,200,2012-10-06 15:15:00
11:35 AM,77.7,66.0,67,29.86,10.0,SSW,9.2,-,N/A,,Clear,210,2012-10-06 15:35:00
11:55 AM,78.6,66.0,65,29.86,10.0,SW,8.1,-,N/A,,Clear,220,2012-10-06 15:55:00
12:15 PM,79.3,66.6,65,29.86,10.0,WSW,6.9,-,N/A,,Clear,240,2012-10-06 16:15:00
12:35 PM,81.0,66.9,62,29.85,10.0,SSW,5.8,-,N/A,,Clear,200,2012-10-06 16:35:00
12:55 PM,79.9,65.8,62,29.86,10.0,West,4.6,-,N/A,,Mostly Cloudy,260,2012-10-06 16:55:00
1:15 PM,79.3,66.2,64,29.86,10.0,WNW,4.6,-,N/A,,Overcast,290,2012-10-06 17:15:00
1:35 PM,72.5,64.4,76,29.88,10.0,NNW,16.1,25.3,N/A,,Overcast,330,2012-10-06 17:35:00
1:55 PM,70.3,63.1,78,29.88,10.0,NNW,11.5,17.3,N/A,,Overcast,330,2012-10-06 17:55:00
2:15 PM,69.3,62.2,78,29.89,10.0,NNW,6.9,-,N/A,,Overcast,340,2012-10-06 18:15:00
2:35 PM,69.3,61.5,76,29.90,10.0,NNW,9.2,-,N/A,,Overcast,340,2012-10-06 18:35:00
2:55 PM,70.9,60.1,69,29.90,10.0,North,15.0,-,N/A,,Mostly Cloudy,10,2012-10-06 18:55:00
3:15 PM,72.3,60.4,66,29.91,10.0,NW,13.8,18.4,N/A,,Scattered Clouds,320,2012-10-06 19:15:00
3:35 PM,71.1,59.4,66,29.91,10.0,North,13.8,-,N/A,,Scattered Clouds,360,2012-10-06 19:35:00
3:55 PM,73.0,59.9,63,29.92,10.0,NNW,15.0,18.4,N/A,,Scattered Clouds,340,2012-10-06 19:55:00
4:15 PM,70.7,57.2,62,29.92,10.0,North,13.8,-,N/A,,Scattered Clouds,350,2012-10-06 20:15:00
4:35 PM,69.6,56.3,63,29.92,10.0,NNW,16.1,20.7,N/A,,Clear,340,2012-10-06 20:35:00
4:55 PM,68.9,55.8,63,29.92,10.0,NNW,16.1,20.7,N/A,,Clear,330,2012-10-06 20:55:00
5:15 PM,68.0,55.0,63,29.93,10.0,NNW,13.8,17.3,N/A,,Clear,340,2012-10-06 21:15:00
5:35 PM,66.2,54.0,65,29.94,10.0,NNW,11.5,18.4,N/A,,Scattered Clouds,340,2012-10-06 21:35:00
5:55 PM,65.3,53.8,66,29.95,10.0,North,8.1,-,N/A,,Scattered Clouds,350,2012-10-06 21:55:00
6:15 PM,63.7,53.1,68,29.96,10.0,NNW,6.9,-,N/A,,Clear,340,2012-10-06 22:15:00
6:35 PM,62.4,52.7,70,29.96,10.0,NNW,9.2,-,N/A,,Scattered Clouds,340,2012-10-06 22:35:00
6:55 PM,61.0,51.8,72,29.97,10.0,NNW,6.9,-,N/A,,Scattered Clouds,340,2012-10-06 22:55:00
7:15 PM,59.5,51.3,74,29.98,10.0,North,5.8,-,N/A,,Clear,10,2012-10-06 23:15:00
7:35 PM,58.3,50.9,76,29.98,10.0,North,8.1,-,N/A,,Clear,350,2012-10-06 23:35:00
7:55 PM,57.9,50.4,76,29.99,10.0,North,8.1,-,N/A,,Clear,350,2012-10-06 23:55:00
8:15 PM,57.9,49.5,73,30.01,10.0,North,5.8,-,N/A,,Clear,360,2012-10-07 00:15:00
8:35 PM,57.2,49.5,75,30.02,10.0,North,5.8,-,N/A,,Clear,10,2012-10-07 00:35:00
8:55 PM,56.7,49.1,76,30.02,10.0,North,9.2,-,N/A,,Clear,360,2012-10-07 00:55:00
9:15 PM,55.8,48.6,77,30.03,10.0,NE,5.8,-,N/A,,Clear,40,2012-10-07 01:15:00
9:35 PM,55.9,48.2,75,30.03,10.0,North,3.5,-,N/A,,Clear,360,2012-10-07 01:35:00
9:55 PM,51.1,48.0,89,30.04,10.0,Calm,Calm,-,N/A,,Clear,0,2012-10-07 01:55:00
10:15 PM,48.7,47.5,95,30.04,10.0,North,3.5,-,N/A,,Clear,350,2012-10-07 02:15:00
10:35 PM,49.3,48.0,95,30.05,10.0,Calm,Calm,-,N/A,,Clear,0,2012-10-07 02:35:00
10:55 PM,49.1,47.5,94,30.04,10.0,Calm,Calm,-,N/A,,Clear,0,2012-10-07 02:55:00
11:15 PM,47.3,46.6,97,30.04,10.0,Calm,Calm,-,N/A,,Clear,0,2012-10-07 03:15:00
11:35 PM,46.2,46.2,100,30.04,10.0,Calm,Calm,-,N/A,,Clear,0,2012-10-07 03:35:00